Athens, OH

4:07 AM EST on November 14, 2019 (GMT -0500)
Ohio University

Weather History for KUNI - September, 2019

Change the Weather History Date:

Monday, September 16, 2019

  Actual Average (KPKB) Record (KPKB)
Temperature  
Mean Temperature 73 °F 66 °F  
Max Temperature 89 °F 77 °F 96 °F (1939)
Min Temperature 57 °F 55 °F 39 °F (2007)
Degree Days  
Heating Degree Days 0 2  
Month to date heating degree days 17  
Since 1 July heating degree days 22  
Cooling Degree Days 8 3  
Month to date cooling degree days 77  
Year to date cooling degree days 907  
Growing Degree Days 23 (Base 50)    
Moisture  
Dew Point 62 °F    
Average Humidity 75    
Maximum Humidity 100    
Minimum Humidity 42    
Precipitation  
Precipitation 0.00 in 0.10 in 1.80 in (1996)
Month to date precipitation 1.69  
Year to date precipitation 30.48  
Sea Level Pressure  
Sea Level Pressure 30.06 in    
Wind  
Wind Speed 1 mph (NW)    
Max Wind Speed 8 mph    
Max Gust Speed -    
Visibility 10 miles    
Events      
T = Trace of Precipitation, MM = Missing Value Source: NWS Daily Summary

Daily Weather History Graph

Daily Weather History Graph

Search for Another Location

Airport or City:

Astronomy

Sep. 16, 2019 Rise Set
Actual Time 7:10 AM EDT 7:36 PM EDT
Civil Twilight 6:44 AM EDT 8:02 PM EDT
Nautical Twilight 6:12 AM EDT 8:34 PM EDT
Astronomical Twilight 5:40 AM EDT 9:06 PM EDT
Moon 9:11 PM EDT (9/16) 9:16 AM EDT (9/16)
Length of Visible Light 13h 18m
Length of Day
12h 25m
Waning Gibbous, 94% of the Moon is Illuminated
Sep 16
Waning Gibbous
Sep 21
Last Quarter
Sep 28
New
Oct 5
First Quarter
Oct 13
Full

Hourly Weather History & Observations

Time (EDT) Temp. Heat Index Dew Point Humidity Pressure Visibility Wind Dir Wind Speed Gust Speed Precip Events Conditions
12:35 AM 61.3 °F - 61.3 °F 100% 30.10 in 10.0 mi Calm Calm - N/A   Clear
12:55 AM 61.9 °F - 61.9 °F 100% 30.10 in 10.0 mi Calm Calm - N/A   Scattered Clouds
1:15 AM 61.9 °F - 61.9 °F 100% 30.10 in 10.0 mi Calm Calm - N/A   Scattered Clouds
1:35 AM 62.4 °F - 62.4 °F 100% 30.10 in 10.0 mi Calm Calm - N/A   Scattered Clouds
1:55 AM 62.2 °F - 62.2 °F 100% 30.09 in 10.0 mi Calm Calm - N/A   Mostly Cloudy
2:15 AM 62.6 °F - 62.6 °F 100% 30.09 in 10.0 mi Calm Calm - N/A   Overcast
2:35 AM 62.2 °F - 62.2 °F 100% 30.09 in 10.0 mi Calm Calm - N/A   Scattered Clouds
2:55 AM 61.7 °F - 61.7 °F 100% 30.09 in 10.0 mi Calm Calm - N/A   Scattered Clouds
3:15 AM 61.0 °F - 61.0 °F 100% 30.09 in 10.0 mi Calm Calm - N/A   Clear
3:35 AM 60.8 °F - 60.8 °F 100% 30.08 in 10.0 mi Calm Calm - N/A   Scattered Clouds
3:55 AM 59.7 °F - 59.7 °F 100% 30.08 in 10.0 mi Calm Calm - N/A   Scattered Clouds
4:15 AM 59.4 °F - 59.4 °F 100% 30.08 in 10.0 mi Calm Calm - N/A   Scattered Clouds
4:35 AM 59.2 °F - 59.2 °F 100% 30.07 in 10.0 mi Calm Calm - N/A   Mostly Cloudy
4:55 AM 59.4 °F - 59.4 °F 100% 30.07 in 10.0 mi Calm Calm - N/A   Mostly Cloudy
5:15 AM 59.7 °F - 59.7 °F 100% 30.08 in 10.0 mi Calm Calm - N/A   Scattered Clouds
5:35 AM 59.2 °F - 59.2 °F 100% 30.08 in 10.0 mi Calm Calm - N/A   Clear
5:55 AM 58.6 °F - 58.6 °F 100% 30.08 in 10.0 mi Calm Calm - N/A   Clear
6:15 AM 58.1 °F - 58.1 °F 100% 30.08 in 10.0 mi Calm Calm - N/A   Clear
6:35 AM 57.9 °F - 57.9 °F 100% 30.08 in 10.0 mi Calm Calm - N/A   Clear
6:55 AM 57.4 °F - 57.4 °F 100% 30.09 in 10.0 mi Calm Calm - N/A   Clear
7:15 AM 57.9 °F - 57.9 °F 100% 30.09 in 10.0 mi Calm Calm - N/A   Scattered Clouds
7:35 AM 57.9 °F - 57.9 °F 100% 30.10 in 10.0 mi Calm Calm - N/A   Mostly Cloudy
7:55 AM 59.0 °F - 59.0 °F 100% 30.10 in 10.0 mi Calm Calm - N/A   Scattered Clouds
8:15 AM 60.1 °F - 60.1 °F 100% 30.10 in 10.0 mi Calm Calm - N/A   Scattered Clouds
8:35 AM 61.0 °F - 61.0 °F 100% 30.10 in 10.0 mi Calm Calm - N/A   Scattered Clouds
8:55 AM 63.9 °F - 63.0 °F 97% 30.10 in 10.0 mi Calm Calm - N/A   Scattered Clouds
9:15 AM 67.1 °F - 62.4 °F 85% 30.10 in 10.0 mi Calm Calm - N/A   Clear
9:35 AM 69.6 °F - 61.5 °F 75% 30.11 in 10.0 mi Calm Calm - N/A   Clear
9:55 AM 71.1 °F - 61.2 °F 71% 30.11 in 10.0 mi Calm Calm - N/A   Clear
10:35 AM 76.6 °F - 61.3 °F 59% 30.10 in 10.0 mi SW 3.5 mph - N/A   Clear
10:55 AM 78.4 °F - 58.1 °F 50% 30.09 in 10.0 mi West 3.5 mph - N/A   Clear
11:15 AM 80.4 °F 81.0 °F 59.2 °F 48% 30.09 in 10.0 mi WSW 4.6 mph - N/A   Clear
11:35 AM 81.7 °F 81.9 °F 59.2 °F 46% 30.09 in 10.0 mi West 6.9 mph - N/A   Clear
11:55 AM 82.2 °F 82.3 °F 58.8 °F 45% 30.09 in 10.0 mi WSW 4.6 mph - N/A   Clear
12:15 PM 83.7 °F 83.8 °F 60.4 °F 45% 30.08 in 10.0 mi West 3.5 mph - N/A   Clear
12:35 PM 84.9 °F 85.2 °F 61.7 °F 45% 30.07 in 10.0 mi WSW 4.6 mph - N/A   Clear
12:55 PM 85.3 °F 85.7 °F 61.7 °F 45% 30.06 in 10.0 mi Calm Calm - N/A   Clear
1:15 PM 85.8 °F 86.1 °F 61.9 °F 44% 30.06 in 10.0 mi WSW 5.8 mph - N/A   Clear
1:35 PM 86.9 °F 87.5 °F 62.8 °F 44% 30.05 in 10.0 mi West 8.1 mph - N/A   Mostly Cloudy
1:55 PM 87.1 °F 87.8 °F 63.0 °F 44% 30.04 in 10.0 mi WNW 4.6 mph - N/A   Mostly Cloudy
2:15 PM 87.3 °F 88.0 °F 62.8 °F 44% 30.04 in 10.0 mi Calm Calm - N/A   Scattered Clouds
2:35 PM 88.3 °F 89.2 °F 63.1 °F 43% 30.03 in 10.0 mi Calm Calm - N/A   Mostly Cloudy
2:55 PM 88.9 °F 89.7 °F 63.1 °F 42% 30.02 in 10.0 mi West 5.8 mph - N/A   Scattered Clouds
3:15 PM 88.9 °F 90.0 °F 63.9 °F 43% 30.01 in 10.0 mi WSW 8.1 mph - N/A   Mostly Cloudy
3:35 PM 88.9 °F 89.7 °F 63.3 °F 42% 30.01 in 10.0 mi West 6.9 mph - N/A   Scattered Clouds
3:55 PM 88.9 °F 89.7 °F 63.1 °F 42% 30.00 in 10.0 mi WNW 8.1 mph - N/A   Mostly Cloudy
4:15 PM 89.1 °F 90.3 °F 63.7 °F 43% 30.00 in 10.0 mi North 6.9 mph - N/A   Overcast
4:35 PM 86.4 °F 87.6 °F 64.2 °F 47% 30.00 in 10.0 mi NW 6.9 mph - N/A   Overcast
4:55 PM 87.6 °F 89.1 °F 64.2 °F 46% 30.00 in 10.0 mi NW 5.8 mph - N/A   Mostly Cloudy
5:15 PM 86.9 °F 88.3 °F 64.6 °F 47% 29.99 in 10.0 mi NNW 8.1 mph - N/A   Clear
5:55 PM 85.5 °F 87.4 °F 65.7 °F 51% 29.99 in 10.0 mi NNW 3.5 mph - N/A   Clear
6:15 PM 85.5 °F 86.8 °F 64.4 °F 49% 29.99 in 10.0 mi NNW 4.6 mph - N/A   Clear
6:35 PM 84.4 °F 86.1 °F 64.8 °F 52% 30.00 in 10.0 mi NNW 5.8 mph - N/A   Clear
6:55 PM 83.3 °F 85.1 °F 65.1 °F 54% 30.00 in 10.0 mi North 4.6 mph - N/A   Clear
7:15 PM 82.2 °F 84.2 °F 65.5 °F 57% 30.00 in 10.0 mi Calm Calm - N/A   Clear
7:35 PM 80.8 °F 82.9 °F 66.2 °F 61% 30.00 in 10.0 mi Calm Calm - N/A   Clear
7:55 PM 77.4 °F - 66.9 °F 70% 30.00 in 10.0 mi Calm Calm - N/A   Clear
8:15 PM 74.5 °F - 67.1 °F 78% 30.00 in 10.0 mi Calm Calm - N/A   Clear
8:35 PM 73.4 °F - 67.1 °F 81% 30.01 in 10.0 mi Calm Calm - N/A   Clear
8:55 PM 71.6 °F - 67.6 °F 87% 30.01 in 10.0 mi Calm Calm - N/A   Clear
9:15 PM 71.1 °F - 67.1 °F 87% 30.02 in 10.0 mi Calm Calm - N/A   Clear
9:35 PM 71.1 °F - 67.1 °F 87% 30.02 in 10.0 mi Calm Calm - N/A   Clear
9:55 PM 70.5 °F - 66.6 °F 87% 30.03 in 10.0 mi Calm Calm - N/A   Clear
10:15 PM 69.3 °F - 68.9 °F 99% 30.04 in 10.0 mi Calm Calm - N/A   Clear
10:35 PM 72.1 °F - 65.7 °F 80% 30.04 in 10.0 mi North 4.6 mph - N/A   Clear
10:55 PM 73.0 °F - 65.3 °F 77% 30.05 in 10.0 mi NNE 5.8 mph - N/A   Clear
11:15 PM 72.5 °F - 64.9 °F 77% 30.06 in 10.0 mi North 4.6 mph - N/A   Clear
11:35 PM 72.1 °F - 65.3 °F 79% 30.06 in 10.0 mi North 4.6 mph - N/A   Clear
11:55 PM 71.6 °F - 64.9 °F 79% 30.06 in 10.0 mi North 4.6 mph - N/A   Clear